www.pogodaiklimat.ru

Погода и климат >> Архив погоды >> Россия >> Краснодарский край >> Лабинск


ПОГОДА в Лабинске

  • Прогноз погоды в Лабинске
  • Монитор погоды в Лабинске

АРХИВ ПОГОДЫ в Лабинске

Время (UTC), дата Ветер
(напр.,м/с)
 
Видим.   Явления Облачность Т
(С)
Тd
(С)
f
(%)
Тe
(С)
Тes
(С)
Комфортность P
(гПа)
Po
(гПа)
Тmin
(С)
Tmax
(С)
R
(мм)
R24
(мм)
S
(см)
21 15.04 З 3 10 км {ливн. осадки} 10/10 600 м
[Cb cap]
+11.9 +10.8 93 +10 +10 1012.6 981.3
00 16.04 СЗ 3 10 км слаб. ливневой дождь 10/10 600 м
[Cb cap]
+10.3 +9.3 94 +8 +8 1012.8 981.3
03 16.04 З 2 10 км слаб. ливневой дождь 10/10 600 м
[Cb cap]
+9.4 +8.4 93 +8 +8 1014.1 982.5 +9.4 20
06 16.04 З 1 10 км слаб. ливневой дождь 10/10 600 м
[Cb cap]
+9.9 +8.5 91 +9 +9 1014.7 983.1 +9.2
09 16.04 З 1 10 км {ливн. осадки} 8/8 1000 м
[Cb cap]
+13.9 +9.0 72 +14 +18 1013.3 982.2
12 16.04 СЗ 3 10 км {ливн. осадки} 8/8 1000 м
[Cu med, cong]
+16.0 +9.3 64 +16 +17 1011.9 981.1
15 16.04 СЗ 2 10 км 10/8 1000 м
[Cb cap Ac und]
+13.5 +8.9 74 +13 +13 1012.3 981.2 +16.9 4
18 16.04 СЗ 2 10 км 10/10 1000 м
[Sc]
+11.0 +9.3 89 +10 +10 1013.4 982.0
21 16.04 СЗ 1 10 км 10/10 1000 м
[Sc diur, vesp]
+10.2 +9.1 93 +10 +10 1012.9 981.4
00 17.04 СЗ 1 10 км 10/10 1000 м
[Sc]
+9.7 +8.6 93 +9 +9 1012.0 980.5
03 17.04 З 1 10 км 10/0
[As trans]
+9.5 +8.3 92 +9 +9 1011.1 979.6 +9.2
06 17.04 З 3 10 км 10/10 1000 м
[Sc]
+10.8 +8.4 85 +9 +9 1010.8 979.4
09 17.04 СЗ 2 н/о н/о +12.2 +8.5 78 +11 +11 1010.3 979.1
12 17.04 СЗ 2 10 км {ливн. осадки} 10/10 1000 м
[Cb cap]
+11.8 +9.3 85 +11 +11 1010.9 779.6
15 17.04 С 4
{10}
10 км слаб. ливневой дождь 10/10 600 м
[Cb cap]
+6.9 +5.7 92 +3 +3 1013.5 981.6 +12.4 3
18 17.04 СВ 2 4000 м слаб. ливневой дождь 10/10 600 м
[Cb cap]
+5.5 +4.4 93 +3 +3 1016.2 984.0
21 17.04 С 2 10 км слаб. ливневой дождь 10/10 600 м
[Cb cap]
+5.0 +4.0 93 +2 +2 1017.3 985.0
00 18.04 СВ 2 4000 м слаб. ливневой дождь 10/10 600 м
[Cb cap]
+4.1 +3.1 93 +1 +1 1018.0 985.6
03 18.04 СВ 2 10 км {ливн. осадки} 10/10 1000 м
[Cb cap]
+2.8 +1.3 90 -0 -0 1019.0 986.4 +2.8 2
06 18.04 СВ 4 10 км слаб. ливневой дождь 10/10 600 м
[Cb cap]
+2.6 +0.6 87 -2 -2 1020.4 987.7 +2.5
09 18.04 СВ 3 10 км слаб. ливневой дождь 10/10 1000 м
[Cb cap]
+4.3 +2.1 86 +1 +1 1021.4 988.9
12 18.04 В 5 10 км {ливн. осадки} 10/10 1000 м
[Sc]
+6.5 +1.1 68 +3 +3 1021.1 988.8
15 18.04 В 4 10 км 10/10 1000 м
[Sc]
+5.3 +1.9 79 +1 +1 1021.2 988.8 +6.6 2
18 18.04 В 3 10 км слаб. ливневой дождь 10/10 600 м
[Cb cap]
+4.4 +1.4 81 +1 +1 1022.0 989.5
21 18.04 В 3 10 км {снег} 10/10 1000 м
[Sc]
+4.1 +1.1 81 0 0 1021.0 988.5
00 19.04 В 3 10 км {ливн. осадки} 10/10 1000 м
[Sc]
+3.5 +0.6 81 -0 -0 1019.6 987.1
03 19.04 В 3 10 км 10/10 1000 м
[Sc]
+3.0 +0.5 84 -1 -1 1018.9 986.4 +2.9 1
06 19.04 В 6
{10}
10 км слаб. ливневой дождь 10/10 600 м
[Cb cap]
+4.4 +0.5 76 -1 -1 1018.8 986.4
09 19.04 В 5-10
{10}
10 км слаб. ливневой дождь 10/10 600 м
[Cb cap]
+4.9 +2.3 83 0 0 1018.9 986.6
12 19.04 СВ 5
{11}
10 км {ливн. осадки} 9/9 1000 м
[Cb cap]
+7.5 +2.0 68 +4 +4 1018.0 986.0
15 19.04 В 4
{11}
10 км 10/10 600 м
[]
+6.2 +1.4 71 +3 +3 1019.0 986.8 +8.0 1
18 19.04 СВ 4 10 км 10/10 1000 м
[Sc]
+5.7 +0.8 71 +2 +2 1019.9 987.6
21 19.04 СВ 2 10 км 10/3 1000 м
[Sc Ac trans]
+4.4 -0.5 70 +2 +2 1019.1 986.7
00 20.04 В 3 10 км 10/10 1000 м
[Sc]
+4.8 +1.0 76 +1 +1 1019.1 986.7
03 20.04 В 4
{11}
10 км 10/10 600 м
[Cb cap]
+4.6 0.0 72 +1 +1 1018.5 986.1 +4.0
06 20.04 В 6-11
{11}
10 км 10/5 1000 м
[Sc diur, vesp Ac trans Ci fib]
+6.3 +0.6 67 +2 +3 1019.3 987.1
09 20.04 СВ 6-11
{12}
10 км 10/10 1000 м
[Sc]
+7.4 +0.4 61 +3 +3 1020.3 988.2
12 20.04 В 5
{11}
10 км 10/10 1000 м
[Sc]
+8.5 +0.1 55 +5 +5 1020.2 988.2
15 20.04 В 4 10 км 10/10 1000 м
[Sc]
+7.9 -0.4 56 +5 +5 1020.7 988.6 +9.0
18 20.04 СВ 4 10 км 10/10 1000 м
[Sc]
+6.5 -0.4 61 +3 +3 1020.8 988.6
21 20.04 В 3 10 км 10/3 1000 м
[Sc Ac trans Ci fib]
+4.5 -0.2 72 +1 +1 1020.0 987.6
00 21.04 СВ 3 10 км 3/0
[Ci fib]
+2.3 -0.6 81 -2 -2 1019.1 986.5
03 21.04 СВ 4 10 км 3/0
[Ac trans]
+2.3 -1.3 77 -2 -2 1018.5 985.9 +1.9
06 21.04 В 6-12
{13}
10 км 3/3 1000 м
[Cu hum]
+8.1 -1.3 51 +5 +7 1018.4 986.4
09 21.04 В 6-10
{14}
10 км 8/8 1000 м
[Cu hum]
+10.3 -1.1 45 +7 +9 1018.6 986.8
12 21.04 СВ 5-11
{13}
10 км 8/8 1000 м
[Cu hum]
+11.1 -1.6 41 +9 +10 1018.6 987.0
15 21.04 В 4
{11}
10 км 9/9 1000 м
[Sc diur, vesp]
+10.3 -1.4 44 +8 +8 1018.7 987.0 +11.7
18 21.04 СВ 4
{11}
10 км 10/10 1000 м
[Sc diur, vesp]
+8.3 +0.8 59 +5 +5 1019.4 987.4
21 21.04 СВ 3 10 км 4/0
[Ci fib]
+5.6 +0.4 69 +3 +3 1019.3 987.0
00 22.04 СВ 3 10 км 10/0
[]
+4.6 +0.1 73 +1 +1 1019.6 987.2
03 22.04 СВ 3 10 км 3/0
[Ac trans]
+3.3 -0.3 77 -1 -0 1019.7 987.2 +2.7
06 22.04 В 6-10
{13}
10 км 10/4 1000 м
[Sc Ac trans Ci fib]
+9.0 +1.5 59 +6 +7 1019.3 987.4
09 22.04 В 6-14
{14}
10 км 10/6 600 м
[Cu Sc Ac trans Ci fib]
+12.2 +0.5 45 +10 +11 1019.3 987.7
12 22.04 СВ 6-11
{14}
10 км 10/8 600 м
[Cu Sc Ac trans Ci fib]
+12.5 -0.1 42 +10 +11 1019.5 988.0
15 22.04 В 4-11
{12}
10 км 10/9 600 м
[Sc Ac trans Ci fib]
+12.0 -0.8 41 +10 +10 1020.1 988.5 +13.0

 

Местоположение метеостанции Лабинск (Краснодарский край, Россия): широта 44.67 долгота 40.75 высота над уровнем моря 264 м.

В архиве по умолчанию представлена погода в Лабинске за последнюю неделю. Архивные данные за месяц целиком и за предыдущие месяцы, начиная с января 2011 года, Вы можете получить, выбрав интересующий диапазон дат из раскрывающегося списка и нажав кнопку "Ввод!".


*Определитесь, кто Вы:
робот инопланетянин человек

Внимание! Время в таблицах - всемирное. Для получения местного времени необходимо прибавить поправку, которая равна 3 ч.

Смотрите также архив погоды в соседних городах и на ближайших метеорологических станциях:

Погода в Дондуковской (Адыгея, Россия) (38 км)
Погода в Армавире (Краснодарский край, Россия) (45 км)
Погода в Майкопе (Адыгея, Россия) (53 км)
Погода в Шунтуке (Адыгея, Россия) (55 км)
Погода в Псебае (Краснодарский край, Россия) (60 км)
Погода в Отрадной (Краснодарский край, Россия) (65 км)
Погода в Белореченске (Краснодарский край, Россия) (68 км)
Погода в Кропоткине (Краснодарский край, Россия) (86 км)
Погода в Гузерипле (Адыгея, Россия) (89 км)
Погода в Невинномысске (Ставропольский край, Россия) (97 км)

Пояснения к столбцам:

Ветер - указаны скорость ветра в м/с - средняя за 10 мин, порывы в срок и между сроками (в фигурных скобках) и направление, откуда дует ветер: С - северный, СВ - северо-восточный, В - восточный, ЮВ - юго-восточный, Ю - южный, ЮЗ - юго-западный, З - западный, СЗ - северо-западный.
Видимость - горизонтальная дальность видимости в метрах или километрах. При видимости от 1 до 10 км при отсутствии осадков обычно наблюдается дымка, при ухудшении видимости до 1 км и менее - туман. В сухую погоду видимость может ухудшаться дымом, пылью или мглою.
Явления - указаны атмосферные явления, наблюдавшиеся в срок или в последний час перед сроком; фигурными скобками обозначены явления, наблюдавшиеся между сроками (за 1-3 часа до срока); квадратными скобками обозначены град или гололедные отложения с указанием их диаметра в мм.
Облачность - указаны через наклонную черту общая и нижняя облачность в баллах и высота нижней границы облаков в метрах; квадратными скобками обозначены формы облаков: Ci - перистые, Cs - перисто-слоистые, Cc - перисто-кучевые, Ac - высококучевые, As - высокослоистые, Sc - слоисто-кучевые, Ns - слоисто-дождевые, Cu - кучевые, Cb - кучево-дождевые. Подробнее классификацию облаков см. в Атласе облаков (PDF).
T - Температура воздуха - температура, измеренная на высоте 2 м над землей.
Td - Температура точки росы - температура, при понижении до которой содержащийся в воздухе водяной пар достигнет насыщения.
f - Относительная влажность воздуха - влажноcть воздуха, измеренная на высоте 2 м над землей.
Te - Эффективная температура - температура, которую ощущает одетый по сезону человек в тени. Характеристика душности погоды. При расчете учитывается влияние влажности воздуха и скорости ветра на теплоощущения человека.
Tes - Эффективная температура на солнце - температура, которую ощущает человек, с поправкой на солнечный нагрев. Характеристика знойности погоды. Зависит от высоты солнца над горизонтом, облачности и скорости ветра. Ночью, в пасмурную погоду, а также при ветре 12 м/с и более поправка равна нулю.
P - Атмосферное давление - приведенное к уровню моря атмосферное давление.
Po - Атмосферное давление - измеренное на уровне метеостанции атмосферное давление.
Tmin - Минимальная температура - минимум температуры воздуха на высоте 2 м над землей.
Tmax - Максимальная температура - максимум температуры воздуха на высоте 2 м над землей.
R - Количество осадков - Количество выпавших осадков за период времени, мм. При наведении курсора мыши на число - период времени, за который выпало указанное количество осадков.
R24 - Количество осадков - Количество выпавших осадков за 24 часа, мм.
S - Снежный покров - Высота снежного покрова, см. При наведении курсора мыши на число - состояние снежного покрова и степень покрытия местности в баллах.